Location: Namasale
(1.5000°N, 32.6167°E)
Time: 19:28:57
(UTC+00:00)

Vanguard 2 - Visible Passes

Search period start: 19 April 2021 00:00
Search period end: 29 April 2021 00:00
Orbit: 552 x 2938 km, 32.9° (Epoch: 18 April)

Date Brightness Start Highest point End Pass type
(mag) Time Alt. Az. Time Alt. Az. Time Alt. Az.
19 Apr 11.3 03:17:16 10° S 03:25:51 19° SSE 03:36:08 10° ESE visible
19 Apr 9.4 16:44:06 10° N 16:45:55 12° NNE 16:47:35 10° NE visible
20 Apr 8.7 17:00:16 10° NNW 17:04:06 20° NNE 17:05:09 19° NE visible
21 Apr 7.9 17:17:19 10° NW 17:22:07 36° NNE 17:22:11 36° NNE visible
22 Apr 11.2 02:03:52 10° S 02:08:05 12° SSE 02:12:53 10° SE visible
22 Apr 7.5 17:34:50 10° NW 17:39:14 57° NNW 17:39:14 57° NNW visible
23 Apr 11.0 02:19:35 10° S 02:26:34 17° SE 02:35:19 10° ESE visible
23 Apr 8.4 17:52:45 10° WNW 17:56:17 39° W 17:56:17 39° W visible
24 Apr 10.9 02:36:06 10° SSW 02:44:48 24° SE 02:56:20 10° E visible
24 Apr 9.4 18:11:10 10° W 18:13:22 21° WSW 18:13:22 21° WSW visible
25 Apr 10.8 02:52:56 10° SSW 03:02:48 33° SE 03:16:29 10° E visible
25 Apr 7.9 16:18:07 10° NW 16:24:54 55° NNE 16:29:01 12° ESE visible
25 Apr 10.2 18:30:24 10° WSW 18:30:26 10° WSW 18:30:26 10° WSW visible
26 Apr 10.7 03:10:01 10° SSW 03:20:38 44° SE 03:35:58 10° ENE visible
26 Apr 7.6 16:35:56 10° WNW 16:42:43 84° SW 16:46:06 19° SE visible
27 Apr 10.8 01:22:36 10° S 01:27:43 16° SE 01:34:21 10° ESE visible
27 Apr 8.3 16:54:07 10° WNW 17:00:21 46° SW 17:03:10 21° SSE visible
28 Apr 10.6 01:39:38 13° S 01:45:40 23° SE 01:55:22 10° E visible
28 Apr 9.0 17:12:50 10° W 17:17:53 26° SW 17:20:14 18° S visible
